, AK

(GMT )
Northway

Weather History for PAOR - May, 2013

Change the Weather History Date:

Tuesday, May 28, 2013

  Actual Average Record
Temperature  
Mean Temperature 59 °F -  
Max Temperature 78 °F 60 °F 81 °F (2011)
Min Temperature 41 °F 36 °F -32 °F (1971)
Degree Days  
Heating Degree Days 6    
Growing Degree Days 9 (Base 50)    
Moisture  
Dew Point 33 °F    
Average Humidity 40    
Maximum Humidity 82    
Minimum Humidity 17    
Precipitation  
Precipitation 0.00 in - - ()
Sea Level Pressure  
Sea Level Pressure 29.71 in    
Wind  
Wind Speed 3 mph (NW)    
Max Wind Speed 10 mph    
Max Gust Speed -    
Visibility 10 miles    
Events      
Averages and records for this station are not official NWS values.
T = Trace of Precipitation, MM = Missing Value Source: NWS Daily Summary

Daily Weather History Graph

Daily Weather History Graph

Search for Another Location

Airport or City:

Trip Planner

Search our weather history database for the weather conditions in past years. The results will help you decide how hot, cold, wet, or windy it might be!

Date:

Astronomy

May. 28, 2013 Rise Set
Actual Time 3:49 AM AKDT 11:02 PM AKDT
Civil Twilight 1:57 AM AKDT 12:52 AM AKDT
Nautical Twilight Sun does not rise Sun does not rise
Astronomical Twilight Sun does not rise Sun does not rise
Moon 1:04 AM AKDT (5/28) 8:35 AM AKDT (5/28)
Length of Visible Light 22h 55m
Length of Day
19h 12m
Waning Gibbous, 81% of the Moon is Illuminated
May 28
Waning Gibbous
May 31
Last Quarter
Jun 8
New
Jun 16
First Quarter
Jun 23
Full

Hourly Weather History & Observations

Time (AKDT) Temp. Windchill Dew Point Humidity Pressure Visibility Wind Dir Wind Speed Gust Speed Precip Events Conditions
12:53 AM 48.0 °F - 39.9 °F 74% 29.78 in 10.0 mi Calm Calm - N/A   Scattered Clouds
1:53 AM 45.0 °F 43.5 °F 37.9 °F 76% 29.78 in 10.0 mi WSW 3.5 mph - N/A   Scattered Clouds
2:53 AM 43.0 °F 40.3 °F 37.9 °F 82% 29.78 in 10.0 mi SW 4.6 mph - N/A   Scattered Clouds
3:53 AM 41.0 °F - 36.0 °F 82% 29.79 in 10.0 mi Calm Calm - N/A   Scattered Clouds
4:53 AM 42.1 °F - 35.1 °F 76% 29.78 in 10.0 mi Calm Calm - N/A   Scattered Clouds
5:53 AM 43.0 °F - 36.0 °F 76% 29.78 in 10.0 mi Calm Calm - N/A   Scattered Clouds
6:53 AM 50.0 °F - 37.9 °F 63% 29.77 in 10.0 mi Calm Calm - N/A   Clear
7:53 AM 57.0 °F - 37.9 °F 49% 29.75 in 10.0 mi Calm Calm - N/A   Clear
8:53 AM 64.9 °F - 36.0 °F 34% 29.73 in 10.0 mi NW 5.8 mph - N/A   Clear
9:53 AM 69.1 °F - 36.0 °F 30% 29.73 in 10.0 mi NW 5.8 mph - N/A   Scattered Clouds
10:53 AM 72.0 °F - 36.0 °F 27% 29.73 in 10.0 mi NNW 6.9 mph - N/A   Partly Cloudy
11:53 AM 73.9 °F - 33.1 °F 22% 29.72 in 10.0 mi North 6.9 mph - N/A   Scattered Clouds
12:53 PM 75.0 °F - 30.0 °F 19% 29.70 in 10.0 mi NW 5.8 mph - N/A   Scattered Clouds
1:53 PM 75.0 °F - 28.0 °F 18% 29.70 in 10.0 mi WNW 3.5 mph - N/A   Scattered Clouds
2:53 PM 77.0 °F - 30.0 °F 18% 29.68 in 10.0 mi NNW 9.2 mph - N/A   Scattered Clouds
3:53 PM 77.0 °F - 28.0 °F 17% 29.68 in 10.0 mi NW 10.4 mph - N/A   Clear
4:53 PM 77.0 °F - 28.0 °F 17% 29.67 in 10.0 mi WNW 6.9 mph - N/A   Scattered Clouds
5:53 PM 75.9 °F - 28.0 °F 17% 29.66 in 10.0 mi NW 8.1 mph - N/A   Scattered Clouds
6:53 PM 75.0 °F - 27.0 °F 17% 29.65 in 10.0 mi NW 6.9 mph - N/A   Scattered Clouds
7:53 PM 73.9 °F - 26.1 °F 17% 29.64 in 10.0 mi NW 8.1 mph - N/A   Clear
8:53 PM 72.0 °F - 28.9 °F 20% 29.63 in 10.0 mi NW 5.8 mph - N/A   Mostly Cloudy
9:53 PM 69.1 °F - 32.0 °F 25% 29.64 in 10.0 mi NNW 5.8 mph - N/A   Scattered Clouds
10:53 PM 64.0 °F - 32.0 °F 30% 29.65 in 10.0 mi NNW 3.5 mph - N/A   Partly Cloudy
11:53 PM 54.0 °F - 34.0 °F 47% 29.66 in 10.0 mi NNW 5.8 mph - N/A   Partly Cloudy